Time,TemperatureF,DewpointF,PressureIn,WindDirection,WindDirectionDegrees,WindSpeedMPH,WindSpeedGustMPH,Humidity,HourlyPrecipIn,Conditions,Clouds,dailyrainin,SoftwareType,DateUTC
2013-05-26 00:02:00,56.0,49.0,30.25,ENE,66,3.0,9.0,78,0.00,,,0.00,,2013-05-26 05:02:00,
2013-05-26 00:12:00,56.0,49.0,30.25,ENE,66,3.0,9.0,78,0.00,,,0.00,,2013-05-26 05:12:00,
2013-05-26 00:22:00,56.0,49.0,30.25,ENE,76,6.0,9.0,77,0.00,,,0.00,,2013-05-26 05:22:00,
2013-05-26 00:32:00,56.0,49.0,30.25,ENE,74,9.0,14.0,77,0.00,,,0.00,,2013-05-26 05:32:00,
2013-05-26 00:42:00,56.0,49.0,30.25,ENE,74,9.0,14.0,77,0.00,,,0.00,,2013-05-26 05:42:00,
2013-05-26 00:52:00,56.0,49.0,30.25,East,94,8.0,12.0,76,0.00,,,0.00,,2013-05-26 05:52:00,
2013-05-26 01:01:00,56.0,49.0,30.26,ENE,78,8.0,15.0,76,0.00,,,0.00,,2013-05-26 06:01:00,
2013-05-26 01:12:00,56.0,49.0,30.26,ENE,78,8.0,15.0,76,0.00,,,0.00,,2013-05-26 06:12:00,
2013-05-26 01:22:00,56.0,49.0,30.26,East,92,6.0,10.0,77,0.00,,,0.00,,2013-05-26 06:22:00,
2013-05-26 01:32:00,55.0,48.0,30.26,East,79,7.0,11.0,77,0.00,,,0.00,,2013-05-26 06:32:00,
2013-05-26 01:42:00,55.0,48.0,30.26,East,79,7.0,11.0,77,0.00,,,0.00,,2013-05-26 06:42:00,
2013-05-26 01:52:00,55.0,48.0,30.25,East,96,6.0,11.0,78,0.00,,,0.00,,2013-05-26 06:52:00,
2013-05-26 02:01:00,55.0,49.0,30.25,East,84,6.0,9.0,79,0.00,,,0.00,,2013-05-26 07:01:00,
2013-05-26 02:11:00,55.0,49.0,30.25,East,84,6.0,9.0,79,0.00,,,0.00,,2013-05-26 07:11:00,
2013-05-26 02:21:00,55.0,48.0,30.24,ESE,109,8.0,13.0,78,0.00,,,0.00,,2013-05-26 07:21:00,
2013-05-26 02:31:00,55.0,48.0,30.24,SE,125,6.0,10.0,78,0.00,,,0.00,,2013-05-26 07:31:00,
2013-05-26 02:42:00,55.0,48.0,30.24,SE,125,6.0,10.0,78,0.00,,,0.00,,2013-05-26 07:42:00,
2013-05-26 02:52:00,55.0,49.0,30.24,East,101,5.0,8.0,79,0.00,,,0.00,,2013-05-26 07:52:00,
2013-05-26 03:01:00,55.0,48.0,30.24,ESE,109,6.0,12.0,78,0.00,,,0.00,,2013-05-26 08:01:00,
2013-05-26 03:12:00,55.0,48.0,30.24,ESE,109,6.0,12.0,78,0.00,,,0.00,,2013-05-26 08:12:00,
2013-05-26 03:21:00,55.0,49.0,30.23,ESE,106,5.0,9.0,79,0.00,,,0.00,,2013-05-26 08:21:00,
2013-05-26 03:32:00,55.0,49.0,30.23,ESE,102,3.0,7.0,80,0.00,,,0.00,,2013-05-26 08:32:00,
2013-05-26 03:42:00,55.0,49.0,30.23,ESE,102,3.0,7.0,80,0.00,,,0.00,,2013-05-26 08:42:00,
2013-05-26 03:53:00,55.0,49.0,30.24,East,98,4.0,7.0,80,0.00,,,0.00,,2013-05-26 08:53:00,
2013-05-26 04:01:00,55.0,49.0,30.23,ESE,117,5.0,9.0,80,0.00,,,0.00,,2013-05-26 09:01:00,
2013-05-26 04:11:00,55.0,49.0,30.23,ESE,111,6.0,10.0,80,0.00,,,0.00,,2013-05-26 09:11:00,
2013-05-26 04:21:00,55.0,49.0,30.23,ESE,111,6.0,10.0,80,0.00,,,0.00,,2013-05-26 09:21:00,
2013-05-26 04:33:00,55.0,49.0,30.23,ENE,68,6.0,9.0,80,0.00,,,0.00,,2013-05-26 09:33:00,
2013-05-26 04:42:00,55.0,49.0,30.23,ENE,68,6.0,9.0,80,0.00,,,0.00,,2013-05-26 09:42:00,
2013-05-26 04:52:00,55.0,49.0,30.23,ESE,115,7.0,11.0,80,0.00,,,0.00,,2013-05-26 09:52:00,
2013-05-26 05:02:00,55.0,49.0,30.22,ESE,119,7.0,11.0,79,0.00,,,0.00,,2013-05-26 10:02:00,
2013-05-26 05:12:00,55.0,49.0,30.22,ESE,119,7.0,11.0,79,0.00,,,0.00,,2013-05-26 10:12:00,
2013-05-26 05:23:00,56.0,50.0,30.22,ESE,109,6.0,10.0,79,0.00,,,0.00,,2013-05-26 10:23:00,
2013-05-26 05:33:00,56.0,50.0,30.22,SE,126,6.0,11.0,79,0.00,,,0.00,,2013-05-26 10:33:00,
2013-05-26 05:42:00,56.0,50.0,30.22,SE,126,6.0,11.0,79,0.00,,,0.00,,2013-05-26 10:42:00,
2013-05-26 05:52:00,56.0,49.0,30.23,ESE,119,7.0,11.0,78,0.00,,,0.00,,2013-05-26 10:52:00,
2013-05-26 06:03:00,55.0,49.0,30.23,SE,130,6.0,9.0,81,0.00,,,0.00,,2013-05-26 11:03:00,
2013-05-26 06:11:00,55.0,49.0,30.23,SE,130,6.0,9.0,81,0.00,,,0.00,,2013-05-26 11:11:00,
2013-05-26 06:22:00,55.0,49.0,30.24,SSE,157,6.0,10.0,81,0.00,,,0.00,,2013-05-26 11:22:00,
2013-05-26 06:32:00,55.0,50.0,30.24,SE,140,5.0,9.0,82,0.00,,,0.00,,2013-05-26 11:32:00,
2013-05-26 06:42:00,55.0,50.0,30.24,SE,140,5.0,9.0,82,0.00,,,0.00,,2013-05-26 11:42:00,
2013-05-26 06:52:00,55.0,50.0,30.24,ESE,119,7.0,11.0,84,0.00,,,0.00,,2013-05-26 11:52:00,
2013-05-26 07:02:00,55.0,51.0,30.24,ESE,120,3.0,7.0,85,0.00,,,0.00,,2013-05-26 12:02:00,
2013-05-26 07:12:00,55.0,51.0,30.24,ESE,120,3.0,7.0,85,0.00,,,0.00,,2013-05-26 12:12:00,
2013-05-26 07:21:00,55.0,51.0,30.24,SE,138,3.0,5.0,85,0.00,,,0.00,,2013-05-26 12:21:00,
2013-05-26 07:32:00,55.0,51.0,30.24,ESE,118,5.0,7.0,85,0.00,,,0.00,,2013-05-26 12:32:00,
2013-05-26 07:42:00,55.0,51.0,30.24,ESE,118,5.0,7.0,85,0.00,,,0.00,,2013-05-26 12:42:00,
2013-05-26 07:52:00,56.0,52.0,30.24,East,96,3.0,6.0,85,0.00,,,0.00,,2013-05-26 12:52:00,
2013-05-26 08:02:00,56.0,51.0,30.25,East,92,3.0,5.0,84,0.00,,,0.00,,2013-05-26 13:02:00,
2013-05-26 08:11:00,56.0,51.0,30.25,East,92,3.0,5.0,84,0.00,,,0.00,,2013-05-26 13:11:00,
2013-05-26 08:21:00,56.0,51.0,30.25,ESE,118,3.0,7.0,84,0.00,,,0.00,,2013-05-26 13:21:00,
2013-05-26 08:32:00,56.0,51.0,30.26,ESE,110,4.0,6.0,83,0.00,,,0.00,,2013-05-26 13:32:00,
2013-05-26 08:42:00,56.0,51.0,30.26,ESE,110,4.0,6.0,83,0.00,,,0.00,,2013-05-26 13:42:00,
2013-05-26 08:52:00,57.0,53.0,30.26,ESE,107,3.0,7.0,85,0.00,,,0.00,,2013-05-26 13:52:00,
2013-05-26 09:02:00,57.0,52.0,30.25,SSE,150,5.0,8.0,83,0.00,,,0.00,,2013-05-26 14:02:00,
2013-05-26 09:11:00,57.0,52.0,30.25,SSE,150,5.0,8.0,83,0.00,,,0.00,,2013-05-26 14:11:00,
2013-05-26 09:21:00,57.0,52.0,30.27,ENE,62,5.0,10.0,83,0.00,,,0.00,,2013-05-26 14:21:00,
2013-05-26 09:32:00,57.0,52.0,30.27,ENE,78,5.0,8.0,84,0.00,,,0.00,,2013-05-26 14:32:00,
2013-05-26 09:42:00,57.0,52.0,30.27,ENE,78,5.0,8.0,84,0.00,,,0.00,,2013-05-26 14:42:00,
2013-05-26 09:52:00,57.0,53.0,30.27,ENE,76,5.0,8.0,85,0.00,,,0.00,,2013-05-26 14:52:00,
2013-05-26 10:01:00,56.0,52.0,30.28,East,80,2.0,6.0,85,0.00,,,0.00,,2013-05-26 15:01:00,
2013-05-26 10:12:00,56.0,52.0,30.28,East,80,2.0,6.0,85,0.00,,,0.00,,2013-05-26 15:12:00,
2013-05-26 10:22:00,56.0,52.0,30.27,ESE,113,5.0,10.0,87,0.00,,,0.00,,2013-05-26 15:22:00,
2013-05-26 10:33:00,56.0,52.0,30.26,SE,130,7.0,9.0,88,0.00,,,0.00,,2013-05-26 15:33:00,
2013-05-26 10:43:00,56.0,52.0,30.26,SE,130,7.0,9.0,88,0.00,,,0.00,,2013-05-26 15:43:00,
2013-05-26 10:53:00,56.0,53.0,30.25,SE,128,8.0,11.0,89,0.00,,,0.00,,2013-05-26 15:53:00,
2013-05-26 11:03:00,57.0,53.0,30.25,ESE,123,10.0,12.0,88,0.00,,,0.00,,2013-05-26 16:03:00,
2013-05-26 11:12:00,57.0,53.0,30.25,ESE,123,10.0,12.0,88,0.00,,,0.00,,2013-05-26 16:12:00,
2013-05-26 11:23:00,58.0,54.0,30.24,East,99,10.0,15.0,87,0.00,,,0.00,,2013-05-26 16:23:00,
2013-05-26 11:33:00,59.0,55.0,30.24,ESE,111,8.0,15.0,87,0.00,,,0.00,,2013-05-26 16:33:00,
2013-05-26 11:42:00,59.0,55.0,30.24,ESE,111,8.0,15.0,87,0.00,,,0.00,,2013-05-26 16:42:00,
2013-05-26 11:52:00,61.0,56.0,30.24,SSE,148,10.0,15.0,83,0.00,,,0.00,,2013-05-26 16:52:00,
2013-05-26 12:02:00,62.0,54.0,30.23,SSE,157,12.0,20.0,76,0.00,,,0.00,,2013-05-26 17:02:00,
2013-05-26 12:11:00,62.0,54.0,30.23,SSE,157,12.0,20.0,76,0.00,,,0.00,,2013-05-26 17:11:00,
2013-05-26 12:22:00,63.0,54.0,30.23,SE,143,10.0,16.0,73,0.00,,,0.00,,2013-05-26 17:22:00,
2013-05-26 12:32:00,63.0,55.0,30.23,ESE,106,9.0,15.0,75,0.00,,,0.00,,2013-05-26 17:32:00,
2013-05-26 12:42:00,63.0,55.0,30.23,ESE,106,9.0,15.0,75,0.00,,,0.00,,2013-05-26 17:42:00,
2013-05-26 12:52:00,63.0,56.0,30.23,SE,131,6.0,11.0,78,0.00,,,0.00,,2013-05-26 17:52:00,
2013-05-26 13:01:00,64.0,56.0,30.22,SE,125,8.0,12.0,75,0.00,,,0.00,,2013-05-26 18:01:00,
2013-05-26 13:12:00,64.0,56.0,30.22,SE,125,8.0,12.0,75,0.00,,,0.00,,2013-05-26 18:12:00,
2013-05-26 13:21:00,66.0,57.0,30.23,SSE,158,8.0,13.0,73,0.00,,,0.00,,2013-05-26 18:21:00,
2013-05-26 13:32:00,68.0,57.0,30.22,SE,135,8.0,12.0,69,0.00,,,0.00,,2013-05-26 18:32:00,
2013-05-26 13:42:00,68.0,57.0,30.22,SE,135,8.0,12.0,69,0.00,,,0.00,,2013-05-26 18:42:00,
2013-05-26 13:52:00,67.0,56.0,30.23,SE,130,7.0,12.0,68,0.00,,,0.00,,2013-05-26 18:52:00,
2013-05-26 14:01:00,68.0,56.0,30.22,SE,146,7.0,11.0,66,0.00,,,0.00,,2013-05-26 19:01:00,
2013-05-26 14:11:00,68.0,56.0,30.22,SE,146,7.0,11.0,66,0.00,,,0.00,,2013-05-26 19:11:00,
2013-05-26 14:22:00,69.0,56.0,30.22,ESE,117,7.0,11.0,63,0.00,,,0.00,,2013-05-26 19:22:00,
2013-05-26 14:32:00,70.0,58.0,30.21,ESE,113,7.0,11.0,65,0.00,,,0.00,,2013-05-26 19:32:00,
2013-05-26 14:42:00,70.0,58.0,30.21,ESE,113,7.0,11.0,65,0.00,,,0.00,,2013-05-26 19:42:00,
2013-05-26 14:52:00,71.0,59.0,30.21,ENE,76,8.0,13.0,66,0.00,,,0.00,,2013-05-26 19:52:00,
2013-05-26 15:02:00,71.0,59.0,30.20,East,82,8.0,13.0,67,0.00,,,0.00,,2013-05-26 20:02:00,
2013-05-26 15:11:00,71.0,59.0,30.20,East,82,8.0,13.0,67,0.00,,,0.00,,2013-05-26 20:11:00,
2013-05-26 15:22:00,71.0,57.0,30.19,ESE,107,9.0,13.0,61,0.00,,,0.00,,2013-05-26 20:22:00,
2013-05-26 15:32:00,72.0,58.0,30.18,East,87,9.0,14.0,61,0.00,,,0.00,,2013-05-26 20:32:00,
2013-05-26 15:42:00,72.0,58.0,30.18,East,87,9.0,14.0,61,0.00,,,0.00,,2013-05-26 20:42:00,
2013-05-26 15:52:00,73.0,58.0,30.17,SE,131,10.0,15.0,59,0.00,,,0.00,,2013-05-26 20:52:00,
2013-05-26 16:01:00,73.0,59.0,30.16,SE,133,9.0,13.0,61,0.00,,,0.00,,2013-05-26 21:01:00,
2013-05-26 16:11:00,73.0,59.0,30.16,SE,133,9.0,13.0,61,0.00,,,0.00,,2013-05-26 21:11:00,
2013-05-26 16:22:00,74.0,59.0,30.16,South,169,7.0,13.0,59,0.00,,,0.00,,2013-05-26 21:22:00,
2013-05-26 16:33:00,74.0,57.0,30.15,SE,128,8.0,13.0,56,0.00,,,0.00,,2013-05-26 21:33:00,
2013-05-26 16:43:00,74.0,57.0,30.15,SE,128,8.0,13.0,56,0.00,,,0.00,,2013-05-26 21:43:00,
2013-05-26 16:53:00,74.0,57.0,30.15,SE,142,11.0,15.0,55,0.00,,,0.00,,2013-05-26 21:53:00,
2013-05-26 17:02:00,74.0,58.0,30.14,SE,136,9.0,13.0,57,0.00,,,0.00,,2013-05-26 22:02:00,
2013-05-26 17:12:00,74.0,58.0,30.14,SE,136,9.0,13.0,57,0.00,,,0.00,,2013-05-26 22:12:00,
2013-05-26 17:23:00,74.0,58.0,30.14,SSE,153,8.0,15.0,57,0.00,,,0.00,,2013-05-26 22:23:00,
2013-05-26 17:33:00,74.0,59.0,30.14,SSE,158,6.0,11.0,59,0.00,,,0.00,,2013-05-26 22:33:00,
2013-05-26 17:42:00,74.0,58.0,30.14,SSE,156,7.0,12.0,58,0.00,,,0.00,,2013-05-26 22:42:00,
2013-05-26 17:53:00,74.0,58.0,30.14,SSE,156,7.0,12.0,58,0.00,,,0.00,,2013-05-26 22:53:00,
2013-05-26 18:02:00,74.0,58.0,30.12,SE,142,8.0,11.0,58,0.00,,,0.00,,2013-05-26 23:02:00,
2013-05-26 18:12:00,74.0,58.0,30.12,SE,142,8.0,11.0,58,0.00,,,0.00,,2013-05-26 23:12:00,
2013-05-26 18:22:00,74.0,58.0,30.11,SE,140,9.0,13.0,58,0.00,,,0.00,,2013-05-26 23:22:00,
2013-05-26 18:32:00,74.0,59.0,30.11,ESE,121,6.0,10.0,59,0.00,,,0.00,,2013-05-26 23:32:00,
2013-05-26 18:43:00,74.0,59.0,30.11,ESE,121,6.0,10.0,59,0.00,,,0.00,,2013-05-26 23:43:00,
2013-05-26 18:52:00,74.0,59.0,30.11,SE,135,6.0,10.0,59,0.00,,,0.00,,2013-05-26 23:52:00,
2013-05-26 19:02:00,73.0,59.0,30.11,SE,142,4.0,10.0,62,0.00,,,0.00,,2013-05-27 00:02:00,
2013-05-26 19:11:00,73.0,59.0,30.11,SE,142,4.0,10.0,62,0.00,,,0.00,,2013-05-27 00:11:00,
2013-05-26 19:21:00,73.0,59.0,30.11,ESE,117,5.0,9.0,61,0.00,,,0.00,,2013-05-27 00:21:00,
2013-05-26 19:32:00,72.0,59.0,30.11,SE,132,5.0,7.0,63,0.00,,,0.00,,2013-05-27 00:32:00,
2013-05-26 19:42:00,72.0,59.0,30.11,SE,132,5.0,7.0,63,0.00,,,0.00,,2013-05-27 00:42:00,
2013-05-26 19:52:00,71.0,59.0,30.10,SE,138,6.0,9.0,65,0.00,,,0.00,,2013-05-27 00:52:00,
2013-05-26 20:01:00,71.0,59.0,30.10,SE,124,6.0,10.0,66,0.00,,,0.00,,2013-05-27 01:01:00,
2013-05-26 20:11:00,71.0,59.0,30.10,SE,124,6.0,10.0,66,0.00,,,0.00,,2013-05-27 01:11:00,
2013-05-26 20:22:00,70.0,58.0,30.10,SE,132,6.0,9.0,66,0.00,,,0.00,,2013-05-27 01:22:00,
2013-05-26 20:31:00,70.0,59.0,30.10,ESE,118,4.0,7.0,67,0.00,,,0.00,,2013-05-27 01:31:00,
2013-05-26 20:42:00,69.0,58.0,30.10,ESE,112,4.0,7.0,67,0.00,,,0.00,,2013-05-27 01:42:00,
2013-05-26 20:52:00,69.0,58.0,30.10,ESE,112,4.0,7.0,67,0.00,,,0.00,,2013-05-27 01:52:00,
2013-05-26 21:01:00,69.0,57.0,30.09,SE,134,5.0,9.0,66,0.00,,,0.00,,2013-05-27 02:01:00,
2013-05-26 21:11:00,69.0,57.0,30.09,SE,134,5.0,9.0,66,0.00,,,0.00,,2013-05-27 02:11:00,
2013-05-26 21:22:00,69.0,57.0,30.10,SE,126,4.0,8.0,66,0.00,,,0.00,,2013-05-27 02:22:00,
2013-05-26 21:32:00,69.0,58.0,30.11,ESE,121,4.0,7.0,67,0.00,,,0.00,,2013-05-27 02:32:00,
2013-05-26 21:42:00,69.0,58.0,30.11,ESE,121,4.0,7.0,67,0.00,,,0.00,,2013-05-27 02:42:00,
2013-05-26 21:52:00,68.0,57.0,30.11,ESE,123,5.0,9.0,67,0.00,,,0.00,,2013-05-27 02:52:00,
2013-05-26 22:02:00,68.0,57.0,30.11,ESE,123,5.0,9.0,67,0.00,,,0.00,,2013-05-27 03:02:00,
2013-05-26 22:11:00,68.0,57.0,30.11,ESE,123,5.0,9.0,67,0.00,,,0.00,,2013-05-27 03:11:00,
2013-05-26 22:21:00,68.0,57.0,30.11,SE,128,5.0,7.0,68,0.00,,,0.00,,2013-05-27 03:21:00,
2013-05-26 22:33:00,67.0,56.0,30.10,SE,130,5.0,9.0,69,0.00,,,0.00,,2013-05-27 03:33:00,
2013-05-26 22:43:00,67.0,56.0,30.10,SE,130,5.0,9.0,69,0.00,,,0.00,,2013-05-27 03:43:00,
2013-05-26 22:53:00,67.0,57.0,30.10,SE,143,6.0,9.0,70,0.00,,,0.00,,2013-05-27 03:53:00,
2013-05-26 23:02:00,67.0,57.0,30.10,SE,141,7.0,9.0,71,0.00,,,0.00,,2013-05-27 04:02:00,
2013-05-26 23:12:00,67.0,57.0,30.10,SE,141,7.0,9.0,71,0.00,,,0.00,,2013-05-27 04:12:00,
2013-05-26 23:23:00,67.0,57.0,30.09,SE,145,7.0,11.0,71,0.00,,,0.00,,2013-05-27 04:23:00,
2013-05-26 23:33:00,67.0,57.0,30.09,SSE,163,7.0,12.0,71,0.00,,,0.00,,2013-05-27 04:33:00,
2013-05-26 23:43:00,67.0,57.0,30.09,SSE,152,6.0,11.0,71,0.00,,,0.00,,2013-05-27 04:43:00,
2013-05-26 23:52:00,67.0,57.0,30.09,SSE,152,6.0,11.0,71,0.00,,,0.00,,2013-05-27 04:52:00,